Temp
64 65 65 65 65 65 65 65 65 65 65 66 66 66 66 65 65 67 63 66 68 70 69 67 68 67 67 62 63 63 47 44 50 54 59 70 70 78 78 69 74 76 72 72 71
64 64 64 65 64 64 64 65 65 65 65 65 65 65 65 64 65 66 68 70 70 69 65 62 61 63 58 58 57 51 45 49 59 61 61 66 67 73 70 69 66 66 69 70 70
63 64 64 64 64 64 64 64 64 64 64 65 65 65 64 64 60 62 69 69 69 68 67 66 64 61 55 57 54 53 46 56 61 64 63 62 63 70 67 65 67 62 64 66 68
64 63 63 63 63 63 63 63 64 64 64 64 64 64 64 65 48 64 69 69 68 68 65 63 60 54 52 51 57 48 56 58 60 63 62 59 65 63 67 66 69 68 67 66 66
63 63 62 62 62 62 62 63 63 64 64 64 64 64 64 61 60 71 69 70 69 67 63 60 57 55 50 54 55 50 53 58 61 62 61 64 60 61 64 72 71 72 66 65 66
63 62 61 61 61 62 62 62 63 63 63 63 63 62 62 54 71 71 68 68 67 65 63 62 56 57 52 53 50 53 55 54 54 57 60 59 59 61 64 71 71 71 64 66 66
62 61 60 60 60 61 61 62 62 62 62 63 63 66 61 60 72 70 69 66 67 65 59 63 61 55 54 51 57 55 48 52 50 53 55 61 53 56 64 70 69 69 63 63 65
62 61 60 60 60 60 60 61 61 61 61 63 64 67 57 70 70 71 70 67 69 68 64 65 63 55 53 55 54 48 48 40 54 54 57 56 44 58 65 66 65 66 65 64 64
61 61 60 60 60 60 60 60 61 61 62 64 63 62 58 66 65 70 69 63 65 66 65 67 60 53 52 46 43 45 38 41 46 56 56 54 46 58 65 66 65 65 63 63 63
60 60 59 59 59 59 60 60 63 62 64 69 69 58 63 62 66 68 69 66 61 61 58 56 52 47 49 42 33 35 38 43 42 50 54 52 50 57 65 65 63 63 61 62 62
60 59 59 59 59 59 61 64 60 57 63 60 62 62 65 67 67 63 68 63 62 57 47 52 43 39 46 47 47 48 43 43 49 53 51 49 50 56 61 59 58 59 59 59 62
59 59 59 59 59 60 60 62 56 57 50 65 64 63 67 66 58 62 66 56 56 48 52 45 39 50 54 51 49 48 43 42 49 55 49 49 49 56 61 60 59 60 60 59 59
59 58 58 58 59 61 62 58 63 63 51 60 63 62 62 63 58 59 61 59 52 49 51 43 47 54 51 49 46 47 43 44 45 49 51 47 43 50 57 62 62 62 62 58 59
58 58 58 57 59 63 59 64 64 63 44 53 57 61 62 61 54 65 64 57 53 48 50 49 53 50 47 45 48 42 48 49 46 41 31 48 27 45 52 55 58 58 56 58 61
58 58 57 57 59 61 60 64 63 57 31 55 57 67 63 56 58 56 63 57 48 51 48 45 48 47 44 46 51 42 48 47 46 41 36 42 29 41 52 50 54 55 55 59 59
58 58 57 62 62 61 63 62 57 41 32 43 57 55 55 56 58 57 56 58 56 50 51 49 54 50 50 53 52 52 46 47 45 41 27 38 34 36 43 51 54 56 56 58 58
58 57 56 63 58 62 61 56 41 34 52 47 50 55 53 52 54 54 52 48 44 36 39 48 49 52 52 46 50 47 39 29 26 26 26 41 35 39 48 54 56 58 57 57 57
57 57 60 64 63 61 57 50 33 47 48 52 51 51 47 52 52 51 48 45 49 46 39 34 32 47 51 47 43 44 43 31 24 25 30 40 29 38 52 55 54 57 61 58 56
56 61 60 61 62 59 52 39 41 47 52 49 51 45 48 51 47 49 48 47 48 47 37 38 38 48 51 51 48 44 36 45 34 36 26 32 40 46 50 50 51 53 55 55 57
53 56 59 61 61 55 48 43 48 53 53 50 43 47 43 46 45 47 46 49 49 49 47 44 34 47 49 49 49 44 47 35 34 26 27 33 32 32 38 46 50 49 48 52 52
53 52 56 62 57 51 40 44 52 55 54 49 47 45 47 45 45 44 47 48 50 50 48 45 39 40 44 42 43 41 40 42 41 37 27 26 32 43 42 48 47 49 52 51 55
51 47 57 58 47 49 44 52 51 52 53 50 48 48 46 47 45 45 45 49 53 50 44 45 41 32 42 46 48 44 43 43 33 33 35 33 29 48 48 50 50 51 52 52 53
45 50 56 54 40 43 51 51 52 51 50 49 48 50 50 45 41 46 47 50 52 49 44 46 38 28 34 39 43 40 45 45 44 39 31 28 31 48 46 46 50 50 50 51 52
45 42 50 49 50 46 46 49 49 51 51 53 50 51 47 43 47 44 46 48 50 49 48 47 40 37 31 34 40 37 42 44 41 30 35 37 37 40 43 45 49 49 49 49 50
46 44 48 40 46 47 48 48 46 47 48 52 48 48 46 41 44 43 46 45 47 48 45 44 35 36 39 42 42 40 40 41 36 38 32 39 39 41 44 45 47 50 49 50 50
41 40 41 39 44 43 45 45 46 49 50 46 44 50 48 44 48 43 46 45 44 43 43 44 34 38 37 42 41 37 41 41 41 42 41 41 42 50 48 49 47 48 49 48 48
45 45 39 39 40 38 41 43 44 47 51 53 50 48 46 49 52 53 48 47 44 42 41 41 36 34 32 40 38 34 41 41 41 43 43 36 42 46 45 48 46 47 48 47 47
MSLP
1021.10 1020.84 1020.62 1020.40 1020.16 1019.93 1019.66 1019.43 1019.19 1018.94 1018.73 1018.47 1018.21 1017.93 1017.62 1017.35 1016.72 1016.19 1016.05 1016.56 1016.29 1015.95 1015.77 1015.16 1014.58 1014.34 1014.15 1014.24 1014.28 1014.00 1013.50 1012.07 1011.03 1009.81 1008.14 1006.50 1005.30 1004.54 1004.36 1004.76 1004.75 1005.17 1005.79 1007.51 1009.85
1021.10 1020.89 1020.63 1020.40 1020.16 1019.94 1019.61 1019.34 1019.05 1018.76 1018.49 1018.31 1018.19 1017.90 1017.55 1017.41 1016.75 1015.87 1016.56 1016.29 1016.22 1016.00 1015.70 1015.17 1014.60 1014.43 1014.36 1014.28 1014.46 1014.34 1013.40 1012.14 1011.12 1009.87 1008.76 1007.31 1006.17 1005.08 1004.82 1004.54 1006.49 1006.12 1006.79 1007.15 1009.63
1021.13 1020.80 1020.51 1020.29 1020.10 1019.88 1019.55 1019.22 1018.89 1018.60 1018.32 1018.16 1017.97 1017.76 1017.36 1017.39 1016.71 1016.31 1016.53 1016.28 1016.21 1016.06 1015.70 1015.34 1015.01 1014.79 1014.58 1014.38 1014.42 1014.07 1013.36 1012.46 1011.24 1010.21 1009.51 1008.57 1007.17 1006.37 1005.66 1004.42 1007.18 1006.16 1008.46 1007.90 1009.67
1021.18 1020.89 1020.48 1020.13 1019.89 1019.70 1019.41 1019.13 1018.80 1018.49 1018.15 1017.94 1017.79 1017.61 1017.21 1017.01 1016.76 1016.53 1016.46 1016.28 1016.28 1016.04 1015.66 1015.20 1015.02 1014.94 1014.72 1014.35 1014.12 1014.00 1013.34 1012.72 1011.76 1010.82 1010.02 1009.61 1008.48 1007.55 1006.62 1005.48 1006.29 1007.66 1007.32 1008.23 1009.72
1021.24 1020.93 1020.59 1020.15 1019.77 1019.46 1019.16 1018.91 1018.68 1018.37 1018.10 1017.87 1017.68 1017.57 1017.16 1016.47 1016.16 1016.11 1016.29 1016.17 1016.00 1015.85 1015.61 1015.42 1015.08 1014.88 1014.77 1014.33 1014.03 1014.06 1013.61 1013.02 1012.17 1011.37 1010.67 1010.20 1009.48 1008.80 1007.52 1006.09 1006.35 1007.46 1007.98 1009.27 1009.34
1021.23 1020.87 1020.59 1020.25 1019.85 1019.45 1019.02 1018.64 1018.36 1018.11 1017.98 1017.80 1017.59 1017.55 1017.24 1016.46 1016.00 1016.14 1016.19 1016.03 1016.00 1015.81 1015.56 1015.55 1015.70 1015.54 1015.21 1014.64 1014.52 1014.15 1013.68 1013.54 1013.16 1012.37 1011.22 1010.68 1010.07 1009.38 1007.79 1006.93 1006.88 1008.06 1009.49 1009.43 1009.96
1021.25 1020.87 1020.49 1020.14 1019.77 1019.32 1018.85 1018.43 1018.13 1017.88 1017.73 1017.60 1017.43 1017.22 1016.73 1016.16 1015.76 1015.97 1015.87 1015.64 1015.83 1015.87 1015.74 1015.65 1015.94 1015.87 1015.52 1014.83 1014.36 1014.14 1014.17 1013.85 1013.50 1013.06 1011.93 1011.01 1010.25 1009.36 1008.59 1007.38 1006.81 1007.55 1009.52 1007.05 1009.27
1021.18 1020.74 1020.37 1019.95 1019.51 1019.03 1018.66 1018.26 1017.83 1017.61 1017.42 1017.31 1017.23 1016.76 1016.23 1015.73 1015.64 1015.46 1015.59 1015.35 1015.27 1015.53 1015.77 1015.74 1015.85 1016.01 1015.63 1015.22 1014.48 1014.46 1014.54 1013.97 1012.76 1012.72 1011.83 1011.56 1010.07 1009.30 1008.92 1008.05 1007.67 1007.75 1008.64 1008.38 1009.81
1021.18 1020.67 1020.19 1019.71 1019.25 1018.73 1018.20 1017.81 1017.41 1017.12 1017.12 1017.12 1017.22 1016.51 1015.73 1015.80 1015.57 1015.39 1015.56 1015.50 1015.31 1015.22 1015.32 1015.53 1015.88 1015.71 1015.66 1015.37 1014.80 1014.36 1014.06 1013.57 1012.68 1011.97 1011.54 1011.22 1010.68 1009.77 1008.70 1008.12 1007.89 1008.04 1008.70 1009.04 1010.06
1021.13 1020.63 1020.05 1019.42 1018.90 1018.43 1017.72 1017.13 1016.96 1016.88 1016.88 1016.59 1016.36 1016.45 1015.55 1015.32 1015.18 1015.28 1015.52 1015.69 1015.42 1015.10 1015.11 1015.36 1015.67 1015.48 1015.07 1015.27 1014.82 1013.81 1013.77 1013.04 1012.49 1011.67 1010.95 1011.12 1010.57 1009.40 1008.07 1007.86 1007.67 1007.85 1008.64 1009.08 1009.93
1021.08 1020.47 1019.79 1019.18 1018.69 1018.11 1017.37 1016.84 1017.33 1017.18 1016.26 1015.48 1015.34 1015.03 1014.66 1014.97 1015.28 1015.11 1015.18 1015.28 1015.18 1014.99 1014.69 1014.81 1015.15 1015.03 1014.84 1014.59 1014.33 1013.60 1013.33 1012.85 1012.05 1012.13 1011.06 1011.17 1010.62 1009.35 1009.06 1007.94 1007.75 1007.56 1008.06 1008.84 1009.50
1021.01 1020.28 1019.64 1018.90 1018.46 1017.86 1017.73 1017.33 1018.50 1018.64 1016.93 1014.97 1015.08 1014.99 1014.81 1014.97 1014.89 1014.70 1015.05 1015.18 1014.62 1014.45 1014.08 1014.72 1014.46 1014.06 1014.19 1014.19 1013.88 1013.60 1013.34 1012.81 1011.87 1011.42 1011.47 1011.01 1010.51 1009.59 1008.91 1008.58 1008.03 1007.93 1007.92 1008.52 1009.29
1021.05 1020.22 1019.44 1018.83 1018.22 1017.94 1017.84 1018.42 1018.34 1018.15 1017.41 1015.22 1014.81 1014.69 1014.76 1015.13 1014.57 1014.28 1014.84 1014.52 1014.38 1014.17 1013.80 1014.01 1013.85 1013.82 1013.72 1013.79 1013.68 1013.29 1013.28 1012.76 1012.31 1011.84 1011.34 1011.19 1010.57 1009.66 1008.68 1008.24 1007.82 1007.67 1007.78 1008.60 1009.35
1021.08 1020.27 1019.50 1018.60 1018.60 1017.85 1018.12 1018.41 1018.20 1017.94 1017.25 1015.46 1014.78 1014.58 1014.77 1014.84 1014.54 1014.11 1014.36 1014.67 1014.28 1013.88 1013.73 1013.48 1013.58 1013.67 1013.61 1013.50 1013.52 1013.27 1013.50 1012.84 1012.51 1012.40 1012.02 1011.34 1010.57 1009.21 1008.78 1008.25 1007.94 1007.98 1008.44 1008.91 1009.79
1021.16 1020.35 1019.51 1019.17 1018.82 1018.17 1018.50 1018.28 1018.22 1018.08 1017.02 1015.37 1014.57 1014.42 1014.28 1014.73 1014.30 1014.31 1014.47 1014.46 1014.32 1013.91 1013.96 1013.44 1013.18 1013.35 1013.18 1013.07 1013.06 1013.55 1013.37 1013.02 1012.76 1012.62 1012.55 1011.58 1011.24 1009.04 1008.40 1008.17 1007.95 1008.01 1008.62 1009.15 1009.79
1021.13 1020.43 1019.64 1018.71 1018.61 1018.61 1018.46 1018.33 1018.32 1018.09 1016.08 1014.96 1014.31 1014.10 1014.07 1013.77 1013.81 1014.10 1014.52 1014.69 1014.02 1013.87 1013.37 1012.89 1012.84 1013.15 1012.83 1012.72 1012.65 1012.91 1012.98 1012.47 1012.62 1012.79 1012.78 1011.52 1010.96 1009.12 1007.81 1007.32 1007.46 1007.56 1008.43 1009.35 1010.25
1020.79 1020.38 1019.93 1019.16 1018.72 1018.62 1018.63 1018.38 1018.25 1017.00 1015.54 1014.73 1014.10 1013.78 1013.79 1013.38 1013.17 1013.60 1013.93 1014.00 1013.84 1013.78 1013.09 1012.41 1012.37 1012.46 1012.77 1012.65 1012.37 1012.83 1013.19 1013.28 1013.10 1013.30 1012.63 1011.20 1010.61 1008.97 1007.65 1007.21 1006.97 1007.11 1008.03 1009.16 1010.23
1020.49 1019.67 1019.13 1018.69 1018.77 1018.52 1018.54 1018.39 1017.49 1015.61 1014.81 1014.53 1014.22 1013.80 1013.47 1013.32 1013.00 1013.01 1013.32 1013.28 1013.33 1013.65 1013.40 1012.91 1012.34 1012.25 1012.24 1012.43 1012.33 1012.20 1012.57 1013.52 1013.47 1013.19 1012.62 1011.63 1010.44 1008.69 1007.42 1007.23 1007.33 1006.97 1007.22 1008.74 1009.86
1020.28 1018.76 1018.67 1018.38 1018.59 1018.64 1018.45 1017.98 1015.87 1014.88 1014.59 1014.48 1013.96 1013.75 1012.94 1012.93 1013.32 1012.98 1012.45 1012.67 1013.14 1013.46 1013.69 1012.90 1012.42 1012.24 1012.08 1012.13 1012.54 1011.98 1012.30 1012.05 1012.66 1012.39 1012.57 1011.08 1009.83 1008.86 1008.31 1008.23 1008.02 1007.71 1008.02 1008.64 1009.98
1020.68 1019.19 1018.10 1018.19 1018.50 1018.44 1018.12 1016.87 1015.15 1014.54 1014.61 1014.61 1014.32 1013.75 1013.21 1012.72 1012.77 1012.53 1012.21 1012.40 1012.93 1013.47 1013.82 1013.45 1013.05 1012.12 1012.24 1012.26 1012.04 1012.28 1012.58 1012.34 1012.54 1012.73 1011.96 1011.08 1010.34 1009.32 1008.90 1008.66 1008.66 1008.65 1008.92 1009.72 1010.51
1020.44 1019.15 1018.25 1018.16 1018.52 1018.29 1017.40 1015.89 1014.82 1014.43 1014.59 1014.54 1014.07 1013.74 1013.39 1012.97 1012.67 1012.51 1011.98 1012.57 1012.78 1013.26 1013.84 1013.90 1013.69 1012.67 1012.34 1011.98 1011.39 1012.25 1012.07 1012.14 1012.18 1012.16 1012.04 1011.37 1010.21 1009.28 1009.07 1008.69 1009.07 1009.42 1009.75 1010.22 1010.94
1020.91 1019.45 1018.30 1018.41 1018.56 1017.29 1016.28 1015.12 1014.71 1014.51 1014.85 1014.64 1014.46 1013.78 1013.31 1013.13 1012.88 1012.50 1012.10 1011.86 1012.46 1013.05 1013.56 1013.96 1013.99 1013.23 1011.80 1011.21 1011.24 1011.42 1011.50 1011.72 1012.01 1011.91 1011.81 1011.55 1010.53 1009.57 1009.27 1009.24 1009.33 1009.68 1010.14 1010.72 1011.44
1022.11 1019.91 1018.48 1018.45 1017.98 1016.72 1015.69 1015.08 1014.82 1014.47 1014.51 1014.53 1014.20 1013.82 1013.37 1013.39 1013.31 1012.41 1012.18 1012.45 1012.76 1012.96 1013.23 1013.67 1014.00 1013.40 1012.01 1012.04 1011.72 1011.62 1011.19 1011.46 1011.75 1011.88 1011.77 1011.87 1010.43 1009.66 1009.79 1009.84 1009.89 1010.27 1010.68 1011.23 1011.95
1022.84 1020.66 1018.92 1018.84 1018.01 1017.40 1016.45 1015.30 1014.63 1014.35 1014.39 1014.24 1013.88 1013.63 1013.75 1013.45 1013.05 1012.68 1012.39 1012.63 1012.98 1013.53 1013.44 1013.76 1013.78 1013.51 1012.90 1012.05 1011.91 1011.60 1011.19 1011.33 1011.86 1011.89 1011.03 1010.38 1009.81 1009.84 1010.04 1010.18 1010.36 1010.68 1011.10 1011.57 1012.24
1022.98 1021.36 1020.60 1019.77 1018.65 1018.27 1017.48 1016.26 1015.28 1014.72 1014.81 1014.65 1014.10 1013.76 1013.64 1013.23 1012.73 1012.63 1012.56 1012.81 1013.26 1013.62 1014.17 1014.08 1013.60 1013.01 1012.46 1011.95 1011.60 1011.27 1011.08 1011.20 1011.24 1010.85 1010.72 1009.58 1009.33 1009.11 1009.46 1009.89 1010.35 1010.78 1011.35 1012.04 1012.54
1024.05 1023.62 1022.98 1021.72 1020.51 1019.56 1018.63 1017.14 1016.21 1015.32 1014.81 1014.51 1014.36 1013.65 1013.65 1013.22 1012.17 1011.97 1012.02 1012.50 1012.56 1013.79 1013.97 1014.00 1013.55 1012.82 1012.15 1011.29 1011.23 1010.97 1010.25 1010.28 1010.38 1010.09 1009.70 1009.50 1008.86 1008.38 1008.63 1009.46 1010.31 1011.02 1011.75 1012.32 1012.81
1025.46 1025.08 1024.65 1022.57 1021.63 1020.77 1019.50 1018.41 1017.33 1016.94 1015.22 1014.30 1014.00 1013.91 1013.47 1012.93 1012.42 1011.97 1011.90 1011.95 1012.27 1012.74 1013.43 1013.51 1013.71 1013.32 1012.23 1011.22 1010.91 1010.24 1008.83 1009.11 1009.08 1008.84 1008.81 1008.97 1008.58 1008.28 1009.00 1009.69 1010.39 1011.10 1011.81 1012.60 1013.26
Wind_Speed
12 12 12 12 11 10 10 10 10 11 12 13 13 12 13 12 14 8 3 7 9 14 13 10 9 7 7 7 3 5 5 9 12 14 16 16 13 11 9 3 4 20 10 17 21
11 12 13 13 12 12 11 10 11 11 11 13 13 14 13 12 11 4 4 9 11 12 8 10 9 8 5 6 3 4 6 11 12 11 14 19 10 7 5 8 8 14 19 26 23
12 12 12 13 13 14 13 12 12 12 11 12 12 13 14 11 8 5 8 9 10 9 8 8 8 8 6 7 3 4 8 12 13 16 9 14 14 14 3 16 6 6 16 22 21
15 13 13 12 13 14 14 14 13 13 12 12 13 12 15 6 7 4 9 7 9 7 8 6 6 3 5 7 10 7 11 16 13 15 5 9 14 14 5 10 5 11 22 19 21
17 16 15 15 13 13 14 14 14 14 13 12 11 10 8 7 5 7 6 7 9 6 6 8 7 6 8 4 7 10 11 9 12 11 7 8 12 9 17 14 2 4 17 22 19
19 17 16 15 15 14 14 14 14 14 13 13 10 6 5 7 2 7 6 4 8 8 8 6 6 8 8 7 4 3 6 3 8 13 15 11 11 8 10 11 9 8 12 17 17
20 19 17 15 15 15 15 15 14 14 13 13 7 3 6 3 1 1 1 1 2 4 4 4 6 5 6 6 6 5 3 5 3 13 13 11 14 16 13 16 14 4 11 12 17
21 20 17 15 15 15 16 16 16 13 13 10 5 5 5 3 3 3 0 3 3 2 3 4 3 5 4 8 5 4 1 4 10 19 17 9 14 10 12 14 15 5 9 15 12
20 20 18 17 16 15 15 17 17 13 8 4 5 4 3 2 3 1 1 5 4 2 2 4 3 3 2 4 2 4 3 10 8 7 14 13 9 17 15 18 17 7 9 11 13
20 20 20 18 16 15 16 14 5 2 5 6 6 3 3 3 1 2 2 3 4 3 3 2 4 3 6 0 2 2 5 4 6 5 12 13 15 20 12 15 12 9 10 11 13
21 20 20 19 16 15 10 2 2 3 4 6 3 5 3 3 3 6 1 5 8 5 2 4 3 5 7 6 11 10 4 9 4 10 4 14 15 15 16 5 8 8 10 12 14
21 21 21 19 18 15 5 4 4 1 7 3 3 4 1 2 3 7 2 4 6 10 3 1 6 5 8 9 10 9 7 9 6 6 8 8 16 16 13 10 9 10 6 9 9
23 23 22 20 16 6 5 3 2 4 4 3 2 4 1 3 4 3 5 4 7 10 7 4 3 4 5 8 11 8 6 11 10 6 8 5 9 13 15 12 6 7 6 9 13
22 23 24 22 5 2 2 3 3 3 2 4 4 3 3 3 4 2 3 2 4 4 6 6 4 4 5 7 11 8 7 12 7 6 4 10 5 10 14 16 8 8 5 8 11
23 24 21 11 6 2 4 3 4 2 4 3 3 4 2 4 4 5 0 4 5 9 2 5 3 6 6 5 5 6 10 9 9 7 5 6 1 7 12 14 9 8 9 7 8
22 24 19 2 3 3 3 4 2 2 4 0 1 3 4 8 4 5 4 3 5 5 7 10 4 3 5 4 5 6 9 9 7 2 2 10 6 7 9 19 10 10 10 13 10
23 23 11 5 3 4 4 3 3 1 1 3 2 1 5 5 3 5 4 5 3 3 4 3 9 5 1 6 7 5 3 4 2 1 5 6 3 11 6 2 7 11 14 15 12
24 25 5 4 4 2 2 1 1 3 3 2 2 6 5 4 4 3 4 7 4 4 5 3 4 7 8 4 4 6 6 2 5 2 5 3 5 8 6 5 7 6 17 16 13
23 2 3 4 2 2 2 2 6 2 0 2 5 3 5 5 3 4 7 4 3 2 3 4 1 1 4 2 1 2 4 4 3 5 2 5 5 1 3 2 1 6 6 14 13
6 4 3 5 2 2 2 6 5 1 2 2 4 3 4 1 3 5 3 4 4 1 2 2 6 3 4 3 7 6 5 2 2 3 5 0 6 5 6 6 5 4 1 7 10
3 4 2 3 1 3 4 7 4 4 5 6 4 3 7 3 3 4 4 3 2 6 3 4 2 3 1 6 4 4 4 5 2 2 2 4 5 2 5 4 6 6 6 8 11
5 4 2 1 2 4 4 4 2 4 4 5 3 5 4 2 5 6 5 5 7 4 4 2 3 5 8 4 4 2 3 1 2 5 4 3 7 4 6 6 4 6 8 9 11
6 5 2 2 5 5 6 3 3 5 7 5 5 8 3 4 5 7 3 4 5 7 5 5 4 5 1 2 2 4 5 5 3 2 5 2 8 3 3 2 5 7 8 8 11
4 5 2 2 4 4 7 10 6 3 6 4 4 4 4 5 7 6 4 5 6 4 6 4 4 7 6 2 1 5 4 6 5 3 4 6 2 6 7 7 7 8 7 8 9
3 3 5 5 7 10 10 12 15 5 3 2 5 8 6 5 4 7 6 3 6 6 3 4 6 6 8 11 8 9 9 9 10 10 4 4 1 1 10 10 9 8 9 9 9
5 5 7 8 12 17 13 9 14 13 8 5 8 10 12 9 7 2 5 6 7 6 6 4 5 3 6 6 5 8 13 12 11 10 12 10 14 9 8 8 8 9 9 9 8
3 2 3 5 8 10 10 15 20 21 14 9 8 11 10 10 9 12 3 2 1 9 9 8 3 1 6 2 4 8 5 11 6 5 6 8 3 6 6 8 8 9 9 9 9
Wind_Direction
348 344 341 338 341 342 342 339 336 334 328 330 332 331 329 331 309 255 2 354 329 323 323 285 272 270 251 270 281 305 253 247 256 256 265 284 244 235 193 270 233 165 141 139 145
348 340 335 334 334 332 332 332 332 330 332 334 328 324 319 330 306 8 28 344 331 329 313 326 317 351 253 260 197 239 237 255 261 264 266 294 316 202 233 243 228 80 99 126 142
352 342 335 331 331 328 325 323 323 323 327 328 326 325 313 326 298 70 358 350 331 316 306 304 295 295 276 262 224 246 250 280 267 284 348 326 329 326 311 254 168 144 125 133 149
355 343 336 329 326 323 319 317 317 315 320 325 325 322 311 296 5 36 357 351 329 305 293 287 274 256 262 242 219 255 250 257 287 304 340 314 310 316 290 272 358 175 151 151 160
355 348 338 330 321 317 312 312 310 310 314 316 321 322 322 290 32 30 343 355 309 324 310 322 299 319 268 280 266 241 270 300 282 290 307 289 296 291 299 301 340 48 150 162 157
352 349 339 329 323 318 312 307 306 307 310 310 310 312 255 321 349 28 1 333 356 329 333 355 349 331 295 282 265 295 271 285 335 306 292 274 278 281 287 292 273 193 189 163 162
351 346 339 331 324 319 315 308 304 303 304 304 286 250 265 294 56 306 28 11 323 329 335 31 7 298 333 259 299 286 278 230 261 285 270 280 267 255 278 281 286 130 137 211 153
352 347 340 331 324 322 317 307 300 295 297 286 228 244 276 119 339 253 312 254 167 223 309 331 308 288 252 334 279 222 297 242 206 215 251 238 271 279 249 272 269 178 173 161 185
352 349 339 329 322 318 313 304 296 282 258 211 213 223 275 156 220 82 275 331 300 196 234 286 305 259 203 255 277 226 236 218 273 240 222 210 252 255 241 235 249 204 187 176 166
348 345 339 331 322 315 308 297 323 182 213 207 269 251 193 323 25 277 207 300 311 305 240 220 238 290 273 26 279 280 230 265 241 299 202 209 239 267 268 216 238 231 173 176 172
344 341 339 333 324 316 317 234 236 185 225 252 322 280 316 93 185 196 153 283 250 231 252 176 272 271 301 264 256 316 325 299 225 267 203 224 240 247 277 238 280 281 182 180 182
342 342 337 334 328 315 282 29 60 247 307 217 266 277 290 9 278 182 139 255 300 290 150 167 246 288 306 309 289 286 303 291 289 278 192 249 234 257 249 241 217 250 229 161 159
343 341 337 331 325 308 61 45 337 300 257 173 209 283 40 196 279 131 186 294 271 295 313 277 306 275 258 292 294 263 278 284 301 249 256 270 262 230 248 260 236 249 229 151 167
341 340 335 330 310 334 75 358 299 305 290 180 186 145 180 257 259 87 202 307 284 281 329 281 107 294 298 289 287 286 302 318 291 316 238 186 261 206 219 242 215 225 149 169 172
337 338 334 339 310 326 3 322 307 248 27 182 141 119 144 236 345 181 82 187 252 293 303 263 251 233 247 252 312 223 253 286 282 276 323 242 237 258 199 223 217 194 176 160 151
337 336 333 255 245 33 323 307 277 357 279 267 182 224 248 188 220 139 221 245 273 285 235 246 116 253 295 312 204 294 291 249 237 251 285 234 182 266 191 203 207 173 172 146 158
335 330 317 304 342 343 320 252 5 222 156 229 256 279 310 247 244 183 250 221 245 335 328 263 206 163 200 259 197 210 11 317 325 5 253 288 237 235 356 247 190 180 168 161 166
329 318 231 274 334 339 243 271 182 256 257 131 254 275 229 33 218 212 261 260 106 233 274 257 310 182 162 242 322 216 152 232 335 307 257 6 249 239 186 54 353 308 159 151 157
320 284 236 144 216 255 251 282 226 216 41 289 282 267 207 165 216 295 220 230 61 185 285 327 305 112 216 316 316 355 208 206 243 256 5 212 245 174 107 32 319 26 166 158 162
317 274 225 127 183 227 228 239 251 160 143 204 254 208 281 111 196 201 268 94 149 265 347 318 298 187 130 229 220 204 325 331 295 292 298 330 275 240 185 190 181 137 77 103 116
243 290 107 129 213 239 212 225 279 172 195 207 263 270 240 269 214 263 261 145 167 157 238 316 227 254 128 209 187 170 249 216 220 241 240 309 273 319 235 171 160 170 179 124 117
309 266 123 190 237 220 236 219 15 189 215 265 284 274 247 230 254 233 238 167 136 152 200 148 310 273 239 84 48 323 269 248 181 301 278 176 274 348 64 46 118 147 124 116 117
316 284 106 286 245 229 242 239 233 201 201 204 238 233 201 233 256 228 242 123 154 179 193 146 248 308 119 55 146 241 215 222 316 356 229 220 269 137 83 150 125 132 134 127 133
297 308 157 206 288 304 307 286 233 191 273 240 268 193 200 241 230 283 239 174 173 234 132 132 230 215 220 245 192 270 237 201 207 199 249 237 322 197 182 186 155 137 131 126 132
251 271 13 304 318 330 316 302 303 292 211 296 266 219 204 246 227 220 234 176 181 170 217 222 224 211 253 264 265 256 246 258 206 225 239 204 340 270 187 176 166 151 142 146 144
330 351 357 308 309 309 304 292 298 300 292 243 230 271 231 246 223 286 223 206 198 154 188 208 271 211 267 225 219 253 246 236 249 251 245 255 282 243 158 142 136 152 147 145 141
358 353 299 285 309 309 290 295 304 320 297 281 284 323 282 275 273 285 284 297 215 165 197 168 218 217 263 167 312 287 235 197 207 225 216 232 251 121 134 145 156 149 144 146 143